Terminal Aerodrome Forecast
Issued by NWS Quad Cities IA IL

Home | Current Version | Previous Version | Text Only | Print | Product List | Glossary On
Versions: 1 2 3 4 5 6 7 8 9 10 11 12 13 14 15 16 17 18 19 20 21 22 23 24 25
731
FTUS43 KDVN 250520
TAFMLI
TAF
KMLI 250520Z 2506/2606 34008KT P6SM BKN040
     FM250900 33004KT 4SM BR BKN025
     FM251500 32006KT P6SM SCT030=

USA.gov is the U.S. government's official web portal to all federal, state and local government web resources and services.